Los Alamitos, CA

1:28 PM PDT on September 20, 2017 (GMT -0700)
Los Alamitos Army Air Field

Weather History for KSLI - December, 2012

Change the Weather History Date:

Monday, December 17, 2012

  Actual Average Record
Temperature  
Mean Temperature 58 °F -  
Max Temperature 62 °F 67 °F 82 °F (1998)
Min Temperature 53 °F 48 °F 36 °F (2015)
Degree Days  
Heating Degree Days 8    
Growing Degree Days 8 (Base 50)    
Moisture  
Dew Point 53 °F    
Average Humidity 91    
Maximum Humidity 100    
Minimum Humidity 65    
Precipitation  
Precipitation 0.00 in - - ()
Sea Level Pressure  
Sea Level Pressure 30.13 in    
Wind  
Wind Speed 3 mph (NNE)    
Max Wind Speed 8 mph    
Max Gust Speed -    
Visibility 9 miles    
Events      
Averages and records for this station are not official NWS values.
T = Trace of Precipitation, MM = Missing Value Source: NWS Daily Summary

Daily Weather History Graph

Daily Weather History Graph

Search for Another Location

Airport or City:

Trip Planner

Search our weather history database for the weather conditions in past years. The results will help you decide how hot, cold, wet, or windy it might be!

Date:

Astronomy

Dec. 17, 2012 Rise Set
Actual Time 6:51 AM PST 4:46 PM PST
Civil Twilight 6:23 AM PST 5:13 PM PST
Nautical Twilight 5:52 AM PST 5:44 PM PST
Astronomical Twilight 5:21 AM PST 6:15 PM PST
Moon 10:14 AM PST (12/17) 9:59 PM PST (12/17)
Length of Visible Light 10h 50m
Length of Day
9h 54m
Waxing Crescent, 26% of the Moon is Illuminated
Dec 17
Waxing Crescent
Dec 19
First Quarter
Dec 28
Full
Jan 4
Last Quarter
Jan 11
New

Hourly Weather History & Observations

Time (PST) Temp. Dew Point Humidity Pressure Visibility Wind Dir Wind Speed Gust Speed Precip Events Conditions
12:28 AM 53.6 °F 53.6 °F 100% 30.15 in 9.0 mi NE 3.5 mph - N/A   Overcast
12:58 AM 54.0 °F 54.0 °F 100% 30.16 in 10.0 mi NE 3.5 mph - N/A   Overcast
1:13 AM 53.6 °F 53.6 °F 100% 30.15 in 10.0 mi NE 3.5 mph - N/A   Overcast
1:18 AM 53.6 °F 53.6 °F 100% 30.16 in 10.0 mi NE 3.5 mph - N/A   Overcast
1:23 AM 53.6 °F 53.6 °F 100% 30.16 in 10.0 mi NE 3.5 mph - N/A   Overcast
1:28 AM 53.6 °F 53.6 °F 100% 30.16 in 10.0 mi NE 2.3 mph - N/A   Overcast
1:33 AM 53.6 °F 53.6 °F 100% 30.16 in 10.0 mi NNE 2.3 mph - N/A   Overcast
1:48 AM 53.6 °F 53.6 °F 100% 30.16 in 10.0 mi NNE 3.5 mph - N/A   Overcast
1:53 AM 53.6 °F 53.6 °F 100% 30.16 in 10.0 mi NNE 3.5 mph - N/A   Overcast
1:58 AM 54.3 °F 54.3 °F 100% 30.17 in 10.0 mi NNE 3.5 mph - N/A   Overcast
2:03 AM 53.6 °F 53.6 °F 100% 30.16 in 10.0 mi NNE 4.6 mph - N/A   Overcast
2:08 AM 53.6 °F 53.6 °F 100% 30.16 in 10.0 mi NNE 4.6 mph - N/A   Overcast
2:33 AM 53.6 °F 53.6 °F 100% 30.17 in 10.0 mi NNE 3.5 mph - N/A   Overcast
2:58 AM 54.3 °F 54.3 °F 100% 30.17 in 10.0 mi NE 4.6 mph - N/A   Overcast
3:08 AM 53.6 °F 53.6 °F 100% 30.16 in 9.0 mi NE 3.5 mph - N/A   Overcast
3:28 AM 53.6 °F 53.6 °F 100% 30.15 in 8.0 mi NNE 4.6 mph - N/A   Overcast
3:58 AM 54.1 °F 54.1 °F 100% 30.15 in 8.0 mi NE 4.6 mph - N/A   Mostly Cloudy
4:58 AM 53.8 °F 53.8 °F 100% 30.15 in 8.0 mi NNE 2.3 mph - N/A   Overcast
5:18 AM 53.6 °F 53.6 °F 100% 30.14 in 7.0 mi NNE 2.3 mph - N/A   Overcast
5:58 AM 54.3 °F 54.3 °F 100% 30.16 in 9.0 mi North 1.2 mph - N/A   Overcast
6:03 AM 55.4 °F 55.4 °F 100% 30.15 in 8.0 mi Calm Calm - N/A   Overcast
6:08 AM 53.6 °F 53.6 °F 100% 30.15 in 8.0 mi NNW 2.3 mph - N/A   Overcast
6:13 AM 53.6 °F 53.6 °F 100% 30.15 in 8.0 mi NNW 2.3 mph - N/A   Overcast
6:23 AM 53.6 °F 53.6 °F 100% 30.15 in 8.0 mi NNW 2.3 mph - N/A   Overcast
6:58 AM 54.5 °F 54.5 °F 100% 30.16 in 9.0 mi North 2.3 mph - N/A   Overcast
7:33 AM 53.6 °F 53.6 °F 100% 30.16 in 7.0 mi NNW 2.3 mph - N/A   Overcast
7:58 AM 55.6 °F 55.6 °F 100% 30.17 in 6.0 mi ENE 3.5 mph - N/A   Overcast
8:38 AM 57.2 °F 53.6 °F 88% 30.15 in 6.0 mi Calm Calm - N/A   Overcast
8:58 AM 57.6 °F 54.3 °F 89% 30.17 in 7.0 mi NE 2.3 mph - N/A   Overcast
9:28 AM 59.0 °F 53.6 °F 82% 30.17 in 7.0 mi Variable 1.2 mph - N/A   Overcast
9:48 AM 59.0 °F 53.6 °F 82% 30.17 in 10.0 mi Variable 1.2 mph - N/A   Overcast
9:58 AM 59.5 °F 52.9 °F 79% 30.19 in 7.0 mi Calm Calm - N/A   Mostly Cloudy
10:08 AM 59.0 °F 53.6 °F 82% 30.17 in 7.0 mi East 3.5 mph - N/A   Mostly Cloudy
10:58 AM 61.2 °F 52.5 °F 73% 30.15 in 7.0 mi East 5.8 mph - N/A   Mostly Cloudy
11:02 AM 60.8 °F 51.8 °F 72% 30.14 in 7.0 mi East 5.8 mph - N/A   Mostly Cloudy
11:58 AM 62.4 °F 51.3 °F 67% 30.11 in 10.0 mi ENE 3.5 mph - N/A   Overcast
12:58 PM 62.2 °F 50.2 °F 65% 30.08 in 10.0 mi Calm Calm - N/A   Mostly Cloudy
1:58 PM 61.2 °F 55.0 °F 80% 30.05 in 10.0 mi South 8.1 mph - N/A   Mostly Cloudy
4:58 PM 59.5 °F 52.3 °F 77% 30.04 in 10.0 mi SW 6.9 mph - N/A   Overcast
5:58 PM 59.4 °F 52.9 °F 79% 30.05 in 10.0 mi WSW 4.6 mph - N/A   Overcast
6:58 PM 59.5 °F 50.0 °F 71% 30.06 in 10.0 mi West 5.8 mph - N/A   Overcast
7:58 PM 58.6 °F 51.8 °F 78% 30.06 in 10.0 mi West 2.3 mph - N/A   Overcast
8:58 PM 58.6 °F 51.4 °F 77% 30.05 in 10.0 mi WNW 1.2 mph - N/A   Overcast
9:58 PM 58.6 °F 51.6 °F 77% 30.04 in 10.0 mi Calm Calm - N/A   Overcast
10:58 PM 57.4 °F 52.9 °F 85% 30.05 in 10.0 mi NW 3.5 mph - N/A   Overcast
11:58 PM 57.6 °F 53.1 °F 85% 30.02 in 10.0 mi Calm Calm - N/A   Overcast